Wind_Speed
22 23 24 24 24 25 25 26 26 26 26 26 26 26 26 27 29 29 30 31 31 31 32 31 29 26 22 18 14 11 8 7 8 9 10 12 13 13 13 13 13 13 12 12 12 11 11 11 11 11 11 11 11 11 10 10 10 10 10 11 12 12 12 12 13 14 15 16 17 17 18 19 21 21 19 19 19 19 20 21 23 25 27 31 34
23 24 25 24 24 24 25 26 26 26 26 27 27 28 27 28 29 31 31 30 30 30 32 32 32 30 27 23 20 16 12 10 8 8 9 11 12 12 12 13 12 12 12 12 12 12 12 12 12 12 11 11 10 10 10 10 10 11 12 12 12 13 13 14 14 15 16 17 17 18 19 20 22 22 20 19 19 18 19 21 23 25 28 32 35
24 25 25 25 24 25 26 26 26 26 26 27 28 28 28 27 28 30 30 31 30 31 32 33 33 32 31 28 24 21 17 14 12 11 10 11 12 12 12 12 12 11 11 12 12 12 12 12 11 11 10 10 10 10 11 11 12 13 13 13 14 14 14 14 15 16 17 18 19 19 19 20 22 23 22 20 19 19 19 21 23 26 29 33 36
24 25 26 26 26 26 26 27 27 27 26 27 29 29 29 28 28 29 30 31 32 32 32 33 33 33 32 31 28 25 22 19 17 15 13 13 13 12 12 12 11 11 11 11 12 12 11 11 10 10 11 11 12 12 13 14 14 15 15 15 14 14 15 15 16 17 18 19 19 19 19 20 21 23 23 22 20 19 20 21 23 26 30 34 37
25 25 26 26 27 27 27 27 28 28 27 27 28 30 30 29 29 29 30 32 32 33 33 32 32 32 32 31 30 28 26 24 22 19 18 16 15 14 13 12 12 11 11 11 11 11 11 12 12 13 13 14 14 14 15 15 15 15 15 15 15 15 16 17 18 19 19 19 19 19 19 19 21 23 24 24 21 20 20 21 24 27 31 34 37
25 25 25 26 27 27 27 27 28 28 28 27 27 27 28 28 29 29 30 31 32 32 32 31 31 31 31 32 31 30 29 28 26 24 22 20 19 17 15 14 13 13 13 13 14 14 15 16 17 17 16 16 16 16 17 16 16 16 16 16 16 17 18 19 20 20 19 19 19 19 19 19 20 21 23 24 23 20 20 21 24 27 31 35 37
25 25 24 25 26 26 26 27 28 28 27 26 26 26 26 26 27 28 29 30 30 30 30 29 29 30 31 32 32 31 31 30 29 28 26 25 23 21 19 18 18 18 18 19 19 19 19 20 20 20 19 18 18 17 17 17 18 18 18 18 18 19 19 20 20 20 19 19 20 20 20 20 19 19 21 23 23 21 19 21 24 28 32 35 37
24 24 24 24 26 26 27 27 27 27 28 28 28 27 26 26 26 27 28 28 30 30 29 29 29 30 30 31 32 32 32 31 31 30 29 28 27 25 24 23 23 23 23 23 22 22 22 22 22 21 20 19 19 19 19 19 19 19 19 20 20 20 20 20 20 20 20 21 21 21 21 20 19 19 20 22 23 21 19 21 24 28 32 35 37
24 24 24 24 26 26 26 26 27 28 29 30 30 30 29 28 28 27 27 28 29 30 30 30 30 30 30 31 31 31 32 32 31 31 31 30 29 28 27 27 27 26 26 25 24 23 23 24 23 22 21 21 20 20 20 20 20 20 21 20 20 20 20 20 20 21 21 22 22 22 21 20 19 19 20 22 23 21 20 22 25 29 32 35 36
23 23 23 24 24 25 25 25 26 28 29 30 30 30 30 30 30 29 29 29 30 30 31 31 32 31 31 31 31 31 31 31 31 31 31 30 30 29 28 28 28 27 26 26 25 23 24 24 24 23 22 21 21 21 20 20 20 20 20 21 21 21 20 21 21 21 22 23 23 22 21 20 20 19 20 23 22 20 21 23 26 29 33 35 34
21 21 21 22 23 23 24 25 26 26 27 28 28 29 29 29 29 29 29 29 30 30 31 31 32 32 32 32 32 32 32 32 31 31 30 30 30 29 28 28 29 28 27 26 26 25 25 25 24 23 22 21 21 20 20 20 20 20 20 20 20 20 20 21 21 21 22 23 23 23 22 21 20 20 22 23 21 20 21 24 27 30 33 34 33
20 20 20 21 21 22 23 23 24 24 25 25 26 26 27 27 27 28 28 28 28 29 29 30 31 32 32 33 32 32 33 32 32 32 31 30 30 30 29 29 29 29 28 27 26 26 25 24 24 23 22 21 21 20 20 20 19 19 19 19 19 20 20 20 21 21 22 23 23 23 22 21 21 22 24 22 20 21 22 24 27 31 34 33 33
19 19 19 20 20 21 21 21 21 21 22 23 23 24 24 24 24 25 26 26 26 27 28 29 30 30 31 31 31 31 31 31 31 31 31 31 30 30 29 29 29 29 28 26 25 25 24 24 24 23 22 21 21 20 20 19 19 18 18 18 19 20 20 20 20 20 22 23 23 23 22 21 21 23 23 21 21 21 23 25 28 31 34 32 33
19 19 19 20 20 20 20 20 20 20 20 20 21 21 21 22 22 22 23 23 24 25 26 27 28 28 29 29 30 30 30 30 29 29 29 30 29 29 27 27 27 27 26 24 23 23 23 23 22 22 21 20 20 19 19 18 18 18 18 19 19 20 20 20 19 20 22 22 22 22 21 21 22 23 22 21 22 23 24 26 29 32 33 32 33
18 18 19 19 19 19 19 19 19 19 19 19 19 19 20 20 20 20 21 22 23 23 24 25 25 26 27 27 28 28 28 28 28 27 27 27 27 27 26 25 25 25 24 23 22 22 22 22 21 21 20 19 19 18 18 18 18 18 18 19 20 20 20 20 19 20 22 22 22 22 22 21 23 23 22 21 22 23 25 27 29 32 33 32 32
16 17 17 18 18 18 18 19 19 19 19 19 19 19 19 19 19 19 19 20 21 21 21 22 23 24 24 25 25 25 26 26 27 26 25 25 25 25 25 24 23 23 23 23 22 22 22 21 21 19 19 19 18 17 17 17 17 18 19 20 20 20 20 19 19 20 21 21 22 22 22 22 24 23 22 22 23 24 26 28 30 33 33 32 32
14 14 15 15 16 17 17 18 18 18 18 19 19 19 19 19 19 18 18 19 19 20 20 20 21 22 22 23 23 23 24 24 25 24 23 23 24 23 23 23 23 22 22 22 22 22 21 21 20 19 19 18 18 17 17 17 17 18 18 19 20 20 20 19 19 20 21 21 21 22 22 24 24 24 23 23 23 23 25 28 31 33 33 33 33
12 12 13 13 14 16 16 17 17 17 18 18 18 18 18 19 19 18 18 18 18 18 18 19 19 20 20 21 21 21 21 22 23 23 22 22 22 22 22 21 22 21 21 21 21 21 21 20 20 20 19 18 17 17 16 17 17 17 18 19 19 20 19 19 19 20 20 20 21 22 23 24 25 24 24 24 23 24 26 29 31 32 33 34 33
10 11 11 12 13 14 15 16 16 17 17 17 18 18 18 18 19 19 18 18 18 18 18 18 18 19 19 19 20 20 20 20 21 21 21 22 22 22 21 20 20 21 21 21 21 20 20 20 20 21 20 18 17 17 16 17 17 17 18 19 19 19 19 19 19 20 20 19 20 22 23 24 25 25 25 25 24 24 26 29 31 32 33 34 34
10 10 11 11 12 13 14 15 16 17 17 17 17 18 18 18 18 18 18 18 18 18 18 18 18 18 18 19 19 19 19 20 20 20 20 21 21 21 21 20 20 20 21 21 21 20 19 20 20 21 20 18 17 17 17 18 18 17 18 19 18 19 19 18 19 20 20 19 20 21 23 24 25 26 25 25 24 24 26 28 30 32 33 34 34
9 10 10 11 12 12 13 15 16 17 17 17 17 17 17 18 18 18 18 18 18 18 18 18 18 18 18 19 19 19 19 19 20 20 20 20 21 20 20 20 19 19 20 20 20 19 19 19 20 20 19 18 18 17 18 18 18 18 18 18 18 18 18 19 19 20 19 19 19 21 22 24 25 26 26 25 25 25 26 28 30 31 32 34 35
7 8 9 10 11 11 12 14 15 16 17 17 17 17 17 17 17 17 17 17 18 18 18 18 18 18 19 19 19 19 19 19 19 20 20 20 20 20 20 20 19 18 18 18 18 18 18 18 18 18 17 17 17 17 17 18 18 18 18 17 17 17 18 19 19 19 19 18 18 20 22 24 26 26 27 26 25 25 26 27 28 30 32 33 34
6 7 8 9 10 10 11 12 14 15 16 16 16 16 16 16 16 16 16 16 17 18 18 18 18 18 18 19 19 19 19 19 19 20 20 20 20 20 20 20 20 19 18 17 17 16 16 16 16 16 15 15 16 16 17 18 18 17 17 17 17 17 18 18 19 19 19 18 18 19 22 25 27 28 28 27 26 26 26 27 28 29 30 32 33
5 5 6 7 8 9 10 11 13 14 15 15 16 16 16 16 15 15 15 15 16 17 17 17 18 18 18 18 18 19 19 19 19 19 20 20 20 20 20 19 19 19 18 17 16 16 16 15 15 14 14 15 16 17 17 17 17 17 17 17 17 17 18 18 19 19 19 18 19 19 22 25 28 29 29 28 28 27 26 27 27 28 29 30 31
3 4 5 6 7 8 9 10 12 12 13 14 15 16 16 16 16 15 15 15 15 15 16 16 17 17 17 18 18 18 18 18 18 19 19 20 19 19 19 19 18 18 18 18 17 16 16 16 15 13 13 14 16 17 17 17 16 16 16 16 16 17 18 19 19 19 19 19 19 20 21 24 28 30 30 29 28 27 27 26 27 28 28 28 29
2 3 3 5 6 7 8 9 10 11 12 13 14 16 17 17 16 16 15 15 15 15 16 16 16 16 17 17 18 18 18 18 18 18 19 19 19 19 19 18 18 17 17 17 17 16 16 16 15 13 12 13 15 16 17 16 16 15 15 16 16 17 18 19 20 20 20 20 20 20 21 24 27 30 31 30 28 28 27 27 27 27 27 27 28
0 1 2 3 4 6 7 8 9 9 11 12 13 15 16 17 17 17 16 16 15 16 16 16 16 16 16 17 17 18 18 18 18 18 18 18 18 17 17 17 17 16 16 15 15 15 15 14 14 13 12 12 14 15 15 16 15 14 15 15 16 17 18 20 20 21 21 21 21 21 21 22 25 29 32 31 29 28 28 27 27 27 27 27 27
2 2 2 2 3 4 5 6 6 8 9 10 12 13 15 16 17 17 16 16 16 16 17 17 17 17 17 17 17 17 17 17 18 18 17 17 17 16 16 15 15 15 14 13 13 13 13 13 12 11 11 12 14 14 15 15 14 14 14 15 16 17 18 20 20 21 22 22 22 22 22 22 23 26 30 31 30 28 28 28 27 27 27 26 26
4 4 4 3 3 3 3 4 5 6 8 9 10 12 13 15 16 17 16 16 17 17 17 17 17 17 17 17 17 17 17 17 17 17 17 16 16 15 15 14 14 13 13 12 11 11 11 11 11 10 11 12 13 14 14 14 13 13 14 15 16 17 18 19 20 20 21 23 23 23 23 23 22 23 27 31 30 29 28 28 27 27 26 26 26
5 6 6 6 5 4 4 4 5 5 6 8 9 11 12 13 15 16 17 17 17 17 17 17 17 18 18 18 18 18 18 17 17 17 17 16 16 15 15 15 14 13 12 11 10 10 10 10 9 9 10 11 12 13 13 13 13 13 14 15 16 17 18 18 19 20 21 22 24 24 24 24 24 24 25 29 30 30 29 28 27 26 26 26 26
7 6 6 7 7 7 7 6 6 6 6 7 8 10 11 12 14 16 17 17 18 18 18 17 18 18 18 18 18 18 18 18 17 17 17 17 16 16 15 15 14 13 12 12 11 10 10 9 9 9 10 11 12 12 13 13 13 13 14 15 16 17 18 18 19 19 20 21 23 24 25 26 26 26 25 27 30 30 29 28 27 27 27 27 28
8 7 7 7 7 8 8 9 8 8 8 8 8 10 11 12 13 15 16 18 18 18 18 18 18 18 18 18 18 18 18 18 18 18 18 17 17 16 16 15 14 14 13 12 11 11 10 10 10 10 11 11 12 12 12 13 13 13 14 15 15 16 17 18 19 20 20 21 22 24 25 26 27 26 26 27 29 30 29 29 29 29 30 30 30
10 9 8 8 7 8 9 10 10 10 10 10 10 10 11 12 13 14 16 17 18 18 19 18 18 18 18 18 18 18 18 18 18 18 18 17 17 17 16 15 15 14 13 12 12 11 11 11 10 10 11 11 11 12 12 13 13 14 15 15 15 16 16 17 19 20 20 21 22 24 25 26 26 27 28 29 30 30 31 31 32 33 34 34 35
14 12 10 9 8 8 8 9 10 11 11 12 12 11 12 12 13 13 15 16 17 18 19 19 19 19 18 18 18 18 18 18 18 18 18 18 17 17 16 16 15 14 14 13 12 12 11 11 10 10 10 10 10 11 12 12 13 14 15 16 16 16 17 18 19 20 21 22 23 24 25 26 27 29 30 31 32 33 34 35 37 38 39 39 40
17 15 13 12 10 10 9 10 10 11 11 12 12 12 13 13 13 14 14 15 17 17 18 18 18 19 18 18 18 18 17 18 18 18 18 18 17 17 16 16 15 15 14 14 13 12 11 10 10 9 9 9 10 10 11 12 13 14 15 16 17 18 18 19 20 21 23 24 25 26 28 29 30 31 33 34 36 37 38 39 41 42 43 44 45
18 18 17 15 13 12 11 11 12 12 12 13 13 14 14 14 15 15 15 15 16 17 17 18 18 18 18 18 17 17 17 17 17 17 17 17 17 17 16 15 15 14 14 14 12 11 10 10 9 9 9 9 10 10 11 12 14 15 16 17 18 19 20 21 23 25 27 29 31 31 32 33 34 35 36 37 39 40 41 42 43 45 46 47 48
19 19 19 17 16 16 15 15 15 15 15 16 16 15 15 16 16 16 16 16 16 16 17 17 17 17 17 17 17 17 16 16 16 16 16 16 16 16 15 14 14 14 13 13 12 10 10 9 9 9 9 9 9 11 12 13 15 16 17 18 20 21 22 23 26 29 32 34 36 37 37 37 37 37 38 39 40 41 42 43 44 45 45 46 47
20 20 20 19 18 18 18 18 18 18 18 19 18 18 18 17 18 18 18 17 16 16 16 16 17 16 16 16 16 16 16 15 15 15 14 14 14 14 14 13 13 13 12 12 11 10 9 9 9 9 9 9 10 11 13 15 16 17 19 21 23 24 25 26 28 30 33 35 37 39 39 39 38 38 39 39 40 40 41 41 42 42 42 43 43
21 19 20 20 20 20 19 20 20 21 21 21 21 20 20 19 19 19 19 19 18 17 16 16 16 16 15 15 15 15 15 15 14 14 13 13 13 13 12 12 12 12 11 10 10 9 8 8 8 8 9 9 10 12 14 16 17 19 22 23 25 27 28 28 29 31 32 34 36 38 38 38 37 37 37 37 37 38 38 38 38 39 39 39 39
25 21 19 19 20 21 21 20 21 22 22 23 22 22 21 20 20 19 19 20 19 18 17 16 15 15 15 14 15 15 15 14 14 13 12 12 11 11 11 10 10 10 10 9 8 7 7 7 7 8 8 9 11 13 15 18 20 22 24 25 27 28 29 30 30 31 32 33 35 36 36 35 34 34 34 33 33 34 34 34 34 34 34 35 35
29 26 23 21 21 20 20 20 21 22 22 23 23 23 22 22 21 20 19 19 19 19 18 17 16 14 14 13 14 14 14 14 13 13 12 11 10 10 9 8 8 8 8 7 6 6 6 5 6 7 8 9 11 13 15 18 20 23 24 25 26 27 28 29 30 30 31 32 33 33 32 32 31 30 30 29 29 29 29 29 29 29 29 30 30
30 29 27 25 24 22 20 20 20 21 22 22 23 23 22 22 22 21 20 20 19 19 18 18 16 14 13 12 12 12 13 13 13 12 11 10 9 8 8 7 7 6 6 6 5 5 5 5 5 6 7 9 11 13 15 17 19 20 22 23 25 26 27 28 28 29 30 30 30 29 28 28 27 27 26 25 25 24 24 24 24 24 24 25 25
30 29 29 27 26 25 23 21 21 21 21 22 22 22 22 22 22 22 21 21 20 20 19 18 17 15 13 11 10 10 11 11 11 11 10 8 7 7 7 6 5 4 4 4 4 4 4 4 5 5 7 10 12 14 15 17 19 20 22 22 24 25 25 26 26 27 27 27 26 25 24 24 23 22 22 22 21 20 20 19 19 19 19 19 20
31 29 29 28 27 27 26 24 23 21 21 21 22 23 23 23 23 23 23 23 22 21 19 18 17 16 13 11 10 9 9 9 10 10 9 7 6 5 5 5 4 2 2 2 3 4 4 3 4 6 7 9 11 13 15 17 18 20 21 21 22 23 23 24 23 23 24 24 22 21 20 19 19 18 18 17 17 16 15 14 14 14 14 15 15
32 30 30 30 29 30 29 28 26 23 21 21 22 23 23 23 23 23 23 23 23 21 20 18 17 16 14 11 10 8 8 9 10 10 10 8 6 5 5 4 4 3 1 1 1 2 3 4 6 7 8 10 11 12 14 16 17 18 19 20 21 21 21 21 21 21 21 21 19 18 16 15 14 14 13 12 11 11 10 9 9 10 10 10 11
33 32 32 32 33 33 32 30 28 26 24 22 22 22 23 23 23 23 23 22 22 21 19 17 16 15 14 12 10 9 8 9 10 11 11 10 7 6 6 6 6 5 4 3 2 1 3 5 7 8 8 10 11 12 13 14 16 17 17 18 19 20 19 19 19 19 19 18 17 15 14 13 11 10 9 7 6 5 4 4 5 5 6 7 8
35 34 33 34 36 36 35 32 30 28 26 24 23 23 23 23 22 22 21 20 20 19 18 16 15 14 14 12 10 9 9 10 11 12 13 13 10 8 8 8 8 7 7 5 4 4 3 4 6 8 9 9 11 12 12 14 15 16 16 17 17 18 19 18 18 17 17 17 16 14 13 11 10 9 7 5 3 2 1 1 2 3 5 6 7
36 35 34 35 38 38 37 35 32 30 28 27 26 25 24 23 21 20 19 18 18 18 18 17 16 15 15 14 13 12 11 11 11 12 14 15 13 11 10 10 10 9 9 9 7 6 6 5 5 7 9 9 10 10 12 13 14 15 16 16 16 17 17 17 16 16 16 16 15 13 13 12 11 10 8 7 6 5 5 6 6 7 8 9 9
37 36 35 35 37 40 40 38 35 33 31 30 30 27 25 23 22 21 19 17 17 17 18 18 18 17 17 17 16 15 14 13 13 13 15 17 16 14 12 12 12 11 11 12 11 9 8 8 7 7 9 10 10 10 11 13 14 15 15 15 15 15 15 15 15 15 14 14 14 13 13 13 13 12 11 11 10 10 10 11 11 12 13 13 14
41 41 37 31 31 36 41 41 39 37 34 33 32 30 27 25 24 24 22 19 16 15 15 16 17 17 17 17 16 16 15 14 14 15 17 18 19 18 16 15 15 13 13 15 14 12 11 11 11 11 11 11 12 12 12 13 14 15 15 15 14 14 14 14 15 15 14 14 14 14 15 15 14 14 14 15 15 15 16 16 16 17 17 18 18
48 46 39 29 27 34 40 42 42 40 38 35 33 32 31 29 28 28 27 25 21 17 16 16 18 18 17 17 16 16 15 15 15 17 19 20 21 20 19 19 18 15 16 18 17 14 14 14 14 14 13 13 13 13 14 14 15 16 16 16 15 15 15 15 16 16 16 16 17 17 17 17 18 18 18 18 19 20 21 21 21 21 19 19 19
Wind_Direction
58 58 59 59 57 55 53 53 54 56 58 58 59 61 62 62 60 58 55 54 54 55 56 56 57 59 62 65 70 79 94 111 124 130 133 131 127 123 119 115 111 108 107 107 107 107 105 101 95 89 84 78 71 63 53 45 46 54 61 64 62 56 47 40 33 27 23 21 19 19 17 13 14 17 21 25 26 23 19 14 9 5 359 355 353
60 60 61 61 58 56 55 55 55 56 59 60 61 62 63 64 60 57 57 57 56 57 58 58 58 59 60 62 65 72 82 95 109 121 129 134 134 129 122 117 113 109 107 105 104 103 98 94 89 86 81 74 65 57 53 57 64 68 67 62 54 46 39 33 27 24 22 22 21 20 18 14 15 18 19 22 21 18 13 9 5 1 356 354 353
62 61 62 61 59 59 58 57 57 58 60 62 62 62 63 64 61 59 59 60 59 59 59 60 60 60 60 61 62 67 73 83 94 106 117 127 133 130 123 115 109 105 103 102 99 95 92 88 84 79 73 67 64 65 69 73 73 68 61 54 46 39 33 29 25 24 23 23 22 22 17 15 17 18 17 16 15 13 8 3 360 357 355 353 353
65 63 63 62 62 62 61 60 59 60 62 64 64 64 65 66 64 63 61 60 59 59 60 61 61 62 62 62 63 66 71 77 85 94 104 113 121 123 119 111 105 102 99 96 93 89 86 82 78 74 72 73 75 78 78 75 69 62 55 48 41 35 30 27 25 24 24 24 23 21 18 16 19 18 17 13 9 7 3 358 355 354 354 353 355
66 65 64 64 64 64 63 61 60 60 62 65 66 66 67 68 67 64 62 61 60 60 60 61 62 64 65 65 66 67 70 74 79 86 93 101 108 111 110 107 102 98 93 89 87 85 84 83 81 79 78 79 79 78 74 69 63 56 50 44 38 33 29 26 25 24 24 24 23 22 19 18 19 19 17 13 8 3 360 356 353 353 354 354 357
68 67 66 66 66 66 65 63 62 61 62 63 65 67 68 68 67 64 62 62 62 60 60 62 63 66 67 68 69 70 72 74 77 81 85 91 97 100 102 101 97 93 91 88 87 87 86 86 84 81 80 78 76 71 66 61 56 51 46 42 37 32 28 25 24 23 23 23 23 22 20 19 18 18 16 13 9 4 358 354 353 355 354 356 0
69 68 66 65 66 66 65 65 63 62 62 62 62 65 66 65 64 64 63 63 62 61 62 64 65 67 69 70 71 72 73 75 77 80 83 86 90 93 95 95 94 92 90 89 88 87 85 85 83 81 77 72 68 64 60 57 53 50 45 41 36 31 27 24 24 23 23 23 23 22 20 19 18 17 16 12 10 6 359 355 356 357 356 359 2
69 68 65 64 65 65 65 65 65 65 64 63 62 62 63 63 64 65 65 63 63 62 64 66 67 68 69 71 72 73 74 75 77 79 82 84 87 89 91 91 91 89 88 87 86 85 84 83 80 76 71 67 64 61 59 56 53 49 45 40 36 31 27 24 24 24 24 23 23 22 20 19 18 18 15 12 10 8 4 1 1 360 360 2 3
67 67 64 64 65 65 65 66 66 66 66 65 64 63 63 63 65 66 65 63 63 64 64 66 67 68 69 71 72 73 75 76 77 79 81 83 85 86 87 88 87 86 85 85 84 82 81 79 76 73 69 66 63 60 58 55 52 48 44 41 36 32 28 26 27 26 25 25 23 22 21 22 21 20 16 12 11 12 13 9 6 3 4 6 7
66 66 65 65 65 66 66 66 65 65 66 66 65 65 64 63 65 66 66 65 65 65 65 66 67 68 69 71 72 73 74 75 77 78 80 81 82 83 84 84 84 84 83 83 82 79 78 77 75 72 69 65 62 59 56 53 50 47 44 41 37 32 29 28 29 28 27 26 24 22 22 24 23 21 16 13 15 19 20 13 9 7 7 10 13
67 66 66 66 66 65 65 64 64 65 65 66 66 66 65 64 64 65 66 66 66 66 65 66 67 68 68 69 71 73 74 74 75 76 78 80 80 81 81 82 82 81 80 80 78 76 74 74 73 71 67 63 60 57 54 50 47 45 43 40 37 32 29 30 31 31 29 26 24 23 24 27 25 21 17 15 22 26 22 15 11 11 12 16 20
67 65 65 64 63 63 62 62 62 63 63 64 64 65 65 65 65 65 65 65 65 65 65 66 66 67 67 68 69 71 73 75 76 76 76 77 79 79 80 80 80 80 78 76 75 74 71 70 70 68 65 61 58 55 51 48 45 42 41 40 37 33 29 30 33 32 30 26 24 23 24 29 26 21 19 21 27 26 21 17 13 14 18 22 24
65 64 63 62 60 60 60 58 59 60 60 62 62 63 64 64 63 64 65 64 64 64 64 64 65 65 66 67 68 69 71 73 74 76 77 77 76 77 77 78 79 79 77 75 74 74 71 69 68 66 63 60 57 53 49 46 42 39 39 40 38 34 30 30 34 34 31 26 24 24 26 29 27 24 24 25 27 23 20 17 15 18 23 25 26
62 61 61 60 59 58 57 55 55 56 57 57 58 60 62 62 60 61 62 62 62 61 61 62 63 64 64 65 66 68 69 70 70 71 75 77 76 75 74 75 76 77 77 75 73 72 71 68 65 64 61 58 56 52 48 45 40 37 37 40 39 35 31 31 35 35 31 26 24 25 26 29 28 28 29 27 24 21 19 18 18 22 26 28 28
57 56 57 56 55 54 53 53 52 53 53 53 53 54 57 59 58 57 58 58 58 59 57 57 59 60 62 63 64 65 66 68 69 68 69 73 76 75 73 71 71 73 75 73 70 68 68 66 63 61 59 57 55 50 47 43 39 35 37 39 39 36 32 31 36 37 31 27 26 27 28 29 31 33 32 28 25 21 20 19 21 25 27 29 29
56 54 53 51 50 49 50 50 49 48 50 50 50 50 51 53 54 54 54 54 55 55 53 53 53 55 57 59 61 62 63 65 68 68 68 69 72 73 73 71 68 68 69 69 68 66 65 64 61 59 58 56 53 49 44 40 36 35 36 39 39 37 33 32 37 37 32 29 30 31 31 31 33 35 33 30 27 24 22 22 24 27 28 30 30
59 55 51 48 47 47 48 48 47 45 46 47 48 47 47 48 50 50 50 50 52 52 50 49 49 49 51 54 56 58 61 63 66 67 67 68 69 70 71 71 69 67 66 67 67 65 64 62 60 58 56 54 51 47 42 37 34 34 36 39 40 39 35 35 38 36 33 33 34 35 34 33 35 35 33 31 30 27 24 25 26 28 29 31 31
64 59 53 49 47 48 48 48 48 46 45 44 45 46 46 45 46 47 46 45 47 48 48 46 45 45 46 48 51 54 57 61 65 66 66 66 66 67 68 69 69 68 66 65 64 63 63 62 60 58 55 53 50 45 40 35 33 34 37 40 41 40 38 38 37 34 35 38 39 39 35 34 37 37 35 33 32 30 28 28 28 29 30 32 32
72 66 60 55 52 51 51 52 51 49 46 43 42 44 45 45 45 44 44 43 42 43 44 43 43 43 43 44 47 49 53 57 62 65 65 65 64 64 65 67 68 67 64 63 62 62 62 62 60 57 55 53 50 46 41 37 35 37 39 41 43 42 40 40 36 34 38 42 43 41 36 35 39 40 38 37 35 33 31 30 30 30 31 33 33
78 74 68 64 60 57 57 56 54 51 48 45 43 44 45 45 45 45 43 42 41 41 41 41 41 41 42 43 44 46 49 53 57 61 63 63 63 64 63 64 65 66 64 62 62 61 61 61 58 56 55 53 52 48 43 41 40 41 42 44 45 44 43 41 38 36 40 44 45 43 38 37 40 41 40 39 38 36 33 32 31 31 32 33 35
80 78 74 70 67 63 60 59 56 53 50 47 44 45 45 46 46 45 45 43 43 41 40 40 40 40 42 43 44 46 48 50 53 56 59 59 60 60 61 60 61 63 64 62 62 61 60 60 59 56 55 53 51 48 43 42 43 44 44 47 48 47 44 42 40 40 43 46 44 43 41 41 41 41 41 41 40 38 36 35 34 33 33 34 35
79 79 77 74 70 67 62 59 56 54 52 49 46 45 47 46 46 46 46 45 45 43 40 40 40 40 42 42 44 46 47 48 49 51 53 55 56 56 55 56 56 59 61 59 59 59 58 59 60 58 56 53 49 45 42 42 44 45 47 50 52 50 45 43 42 43 46 48 45 43 44 43 42 40 41 41 41 39 38 37 36 34 33 33 35
78 78 78 76 73 69 64 60 57 55 53 49 46 46 48 49 48 47 47 48 48 45 42 41 40 40 41 43 44 45 45 46 46 48 49 50 52 53 53 53 53 55 57 55 55 55 55 57 61 59 55 51 44 40 39 41 45 48 50 54 55 52 48 45 44 45 48 50 48 46 45 44 42 41 41 41 41 40 39 39 38 36 34 34 34
81 77 75 75 74 71 67 63 59 56 52 47 44 44 46 49 50 49 49 50 49 49 46 44 43 43 42 43 43 44 45 44 44 46 47 47 49 52 53 53 53 53 53 52 53 54 54 55 58 58 53 46 38 33 33 38 45 50 52 56 57 54 50 47 46 47 48 50 50 49 48 46 44 41 40 40 40 40 40 40 39 37 36 35 35
92 81 72 71 72 70 68 65 62 58 51 46 42 40 42 45 47 48 49 49 49 51 51 49 48 46 45 44 44 44 44 44 44 45 46 46 47 51 53 53 55 54 53 52 53 55 55 53 55 57 52 42 32 28 29 35 44 51 55 58 59 57 53 51 49 48 48 49 50 50 50 48 46 43 41 39 40 40 41 40 39 37 36 36 36
106 90 73 67 66 68 68 66 64 60 54 47 41 38 39 41 42 44 44 46 46 48 52 52 50 49 48 46 46 46 45 44 45 45 45 45 45 48 50 51 53 54 53 52 52 54 54 52 51 53 51 38 27 24 27 34 44 53 58 61 61 59 57 54 51 50 49 49 49 49 50 49 48 46 43 41 40 41 41 41 40 37 35 36 37
259 76 68 63 60 63 66 66 64 60 56 50 42 37 37 37 39 40 40 41 42 44 47 49 49 48 48 48 47 49 47 45 45 45 45 44 43 44 45 46 46 48 49 49 49 50 51 52 50 48 43 31 24 24 28 35 46 55 60 64 65 62 60 58 54 52 51 50 49 49 49 50 49 47 45 43 42 43 43 42 40 37 35 35 38
286 316 349 28 42 50 57 60 57 53 51 48 42 36 33 33 35 36 37 37 38 40 42 45 45 44 45 46 46 48 49 48 48 47 45 44 42 40 39 39 39 40 42 44 44 44 45 46 45 40 31 23 22 25 29 37 49 60 66 69 68 66 64 62 58 56 54 53 51 50 50 50 50 48 45 43 44 45 44 42 40 38 36 36 39
287 306 320 335 354 11 27 36 40 41 41 40 37 33 30 29 29 30 31 33 35 37 38 40 42 41 41 43 44 46 49 49 49 48 46 44 41 38 36 36 36 36 36 37 37 37 36 37 35 28 21 18 21 25 31 40 53 64 71 73 71 70 68 66 63 61 58 56 54 53 52 51 51 49 45 43 45 46 45 43 41 40 39 39 41
287 300 310 321 330 336 347 1 13 20 25 27 27 25 24 23 22 22 22 25 28 31 33 34 37 39 38 40 41 43 46 48 49 49 47 45 43 41 38 37 38 38 36 33 31 29 29 27 23 19 18 19 22 27 34 44 56 66 73 76 74 72 71 69 67 64 62 59 57 55 55 54 53 51 45 42 44 46 45 44 44 44 45 46 47
285 291 301 312 319 325 327 333 345 353 0 8 13 15 15 15 15 14 15 17 20 24 26 28 31 34 35 37 38 40 44 47 48 48 48 48 47 46 44 42 41 40 38 34 30 28 27 24 20 18 21 23 25 30 37 46 58 69 75 78 77 75 74 72 69 67 64 61 58 56 55 54 52 50 48 45 45 47 49 50 52 53 55 56 57
277 284 291 301 309 316 321 325 331 337 342 350 358 3 5 6 7 8 8 10 13 16 19 21 24 28 30 32 34 36 41 44 46 47 48 50 50 50 49 47 45 44 41 37 32 30 30 30 28 24 23 24 25 30 39 50 62 70 76 79 79 77 76 73 71 68 65 62 59 56 54 52 51 51 52 52 52 55 58 61 64 66 67 68 69
266 271 278 288 299 308 315 321 326 332 336 340 346 350 354 357 359 1 3 4 7 10 13 15 18 22 24 27 30 32 37 42 43 45 47 49 50 51 52 51 49 47 46 42 38 34 33 34 34 32 28 26 25 28 40 54 66 73 76 79 81 79 76 74 72 70 66 62 59 56 54 54 55 58 62 65 66 68 71 74 77 78 78 79 79
256 259 262 271 284 296 306 313 321 329 333 335 338 341 345 348 349 352 356 358 359 4 8 11 13 17 20 22 25 29 34 38 40 43 45 47 48 50 52 52 50 49 49 47 44 40 38 38 39 38 34 30 27 29 40 54 68 76 78 80 81 80 77 76 73 70 66 63 61 61 62 65 69 72 76 79 81 82 84 86 86 87 87 87 87
251 249 251 256 266 278 291 300 309 320 328 331 334 335 337 340 341 343 347 350 352 357 3 6 10 14 16 18 21 25 30 34 38 40 42 44 45 48 51 50 48 49 50 49 47 45 43 44 45 44 41 37 34 35 44 59 72 79 81 82 83 83 80 78 75 73 72 72 74 76 79 82 84 86 88 90 91 92 93 93 93 93 92 92 92
259 253 248 248 253 260 271 281 292 303 313 320 325 329 332 334 335 336 339 342 345 349 356 2 7 10 12 14 17 22 26 30 35 38 40 41 42 45 48 49 48 50 51 50 50 50 48 48 50 51 51 47 43 46 56 69 77 82 85 87 88 87 85 82 83 85 88 89 90 92 93 94 95 96 96 97 98 98 98 97 97 96 95 95 94
265 263 256 252 251 252 257 267 278 289 297 305 312 318 324 327 330 331 333 337 339 342 349 356 2 7 9 10 13 17 21 25 30 35 37 38 40 43 46 48 48 51 52 51 52 55 54 55 59 61 62 60 57 59 68 76 82 87 91 94 93 92 91 92 96 99 101 102 102 101 100 100 100 100 100 100 100 99 99 98 97 96 96 95 94
264 265 264 262 260 258 259 262 269 278 286 294 301 307 313 317 321 324 327 332 335 336 341 349 356 2 6 6 7 11 16 20 24 30 35 36 37 40 43 47 50 51 53 53 53 58 61 63 67 72 75 75 72 74 79 84 88 92 95 97 97 98 100 103 106 109 110 110 109 107 105 103 101 100 99 98 97 96 95 95 94 93 93 92 91
269 268 267 269 270 272 272 270 272 277 282 288 293 298 303 307 311 315 319 325 329 332 334 341 349 356 1 3 3 6 10 14 16 22 30 34 34 36 40 47 52 52 55 56 55 58 63 69 74 79 83 85 84 83 86 89 92 94 98 101 104 107 111 113 114 116 116 116 115 113 110 107 105 103 101 99 98 96 95 94 92 91 91 89 88
272 272 273 275 275 278 280 281 282 283 284 287 289 292 295 298 302 307 310 316 321 324 327 332 340 348 355 359 359 0 4 7 9 12 22 28 30 31 36 45 54 55 58 61 59 59 63 69 78 85 88 89 91 91 92 95 98 101 105 109 113 117 119 121 122 123 122 121 120 118 115 112 109 107 105 103 100 98 97 95 94 92 91 91 90
268 269 273 278 279 281 283 285 286 286 285 286 287 289 291 293 296 299 302 306 311 315 319 322 328 336 346 353 355 356 358 360 1 3 11 18 21 22 28 40 52 56 61 65 62 59 59 64 76 87 90 90 93 94 97 101 105 108 113 117 121 125 127 128 128 128 128 126 124 122 119 116 113 110 107 105 102 100 98 96 94 92 91 90 89
262 263 267 273 278 280 283 287 289 289 287 285 284 285 286 288 289 291 294 297 301 306 309 311 316 323 333 342 348 351 351 351 352 353 358 5 7 8 14 29 45 52 58 66 66 57 52 56 71 89 96 97 99 100 102 104 107 111 116 121 126 130 132 133 133 133 132 130 127 125 121 119 116 114 111 109 106 102 100 96 93 90 87 85 85
259 259 261 268 275 277 280 285 290 291 290 287 286 286 285 284 284 285 287 289 292 296 298 301 303 308 316 326 335 341 341 341 340 339 343 350 353 352 354 7 29 42 44 51 59 58 54 63 85 104 110 110 111 111 112 114 115 118 122 127 131 135 137 138 138 138 136 133 131 128 125 122 120 119 117 114 110 106 102 97 91 86 82 79 78
259 256 256 263 270 272 276 281 285 288 288 287 287 288 286 285 285 285 285 285 287 288 290 291 292 294 299 306 314 322 324 325 325 323 323 328 330 328 328 335 351 10 21 22 40 61 74 97 116 120 123 123 121 123 125 126 126 129 132 134 138 141 143 144 145 145 143 140 137 135 132 128 125 124 123 119 115 110 103 95 87 81 77 73 72
259 255 255 259 264 267 270 275 279 282 284 282 283 286 286 285 284 283 282 281 281 282 283 283 282 282 284 287 291 297 302 305 306 306 306 306 301 292 289 294 300 298 279 289 17 69 102 131 137 129 131 135 134 133 137 138 138 139 141 143 146 148 150 152 153 154 153 150 148 146 144 139 134 132 130 124 118 112 103 92 82 73 68 62 60
255 255 257 260 263 265 267 270 273 277 280 278 278 281 283 282 281 280 278 277 277 278 280 280 279 277 275 274 273 273 278 284 288 292 294 291 282 269 264 264 270 273 261 235 205 163 140 145 147 139 137 143 146 145 148 150 150 149 150 152 155 157 159 161 163 164 164 164 163 162 160 157 153 149 144 135 129 117 100 85 70 57 47 40 37
251 254 258 262 264 265 265 266 268 270 273 272 270 272 275 276 278 278 278 279 279 279 280 281 283 283 280 277 273 268 264 266 274 280 284 283 276 261 255 254 256 260 262 249 222 204 192 167 156 150 148 152 156 157 159 160 161 162 163 164 166 168 170 172 173 175 177 178 179 180 180 180 179 180 181 182 190 203 245 311 346 354 354 356 354
249 252 256 261 263 262 260 261 262 263 265 264 262 263 266 270 276 280 282 283 283 281 280 279 281 283 283 282 280 276 270 266 267 272 276 277 273 263 253 251 250 253 258 257 243 223 214 204 179 166 164 166 168 169 172 174 174 175 175 176 178 180 182 184 185 187 189 190 193 197 201 203 205 210 217 228 243 257 272 284 295 305 312 316 319
245 249 256 261 262 259 255 255 258 258 258 258 259 262 264 267 273 278 280 280 280 277 274 272 270 269 270 271 270 269 267 266 265 267 269 270 270 264 255 249 245 245 251 254 247 234 221 214 207 194 184 182 182 183 186 188 189 189 188 188 190 193 196 199 200 200 202 205 209 213 219 221 224 230 240 251 259 266 274 283 290 295 299 302 306
242 246 252 257 257 254 252 252 255 256 254 254 258 263 265 264 266 268 269 269 271 273 270 267 265 263 260 260 259 258 259 260 260 260 263 264 264 262 257 250 243 238 244 248 243 235 227 218 214 213 208 200 197 196 197 200 201 202 201 201 204 209 214 218 219 219 222 225 228 233 235 237 239 243 249 258 266 272 278 285 291 295 297 298 300
242 243 247 248 247 248 250 251 252 253 251 252 255 260 263 262 261 262 263 262 263 267 269 267 265 264 261 257 254 254 253 254 256 257 258 260 261 259 256 250 242 234 239 245 241 234 231 226 220 220 219 216 212 209 207 210 212 213 214 216 221 229 234 239 241 241 243 246 249 251 252 252 253 255 257 261 265 271 277 283 288 293 296 298 300
Height
10988 10987 10985 10983 10982 10981 10979 10978 10977 10975 10974 10973 10972 10971 10969 10968 10967 10966 10964 10963 10961 10959 10957 10955 10953 10952 10951 10951 10950 10950 10950 10950 10951 10951 10952 10953 10953 10953 10953 10954 10954 10954 10955 10955 10956 10956 10956 10956 10956 10956 10956 10956 10955 10955 10954 10954 10953 10952 10951 10949 10948 10947 10946 10945 10944 10943 10941 10940 10938 10936 10934 10932 10930 10928 10926 10924 10922 10920 10918 10916 10914 10911 10908 10905 10902
10990 10989 10987 10985 10984 10983 10981 10980 10979 10978 10977 10976 10974 10973 10972 10970 10969 10968 10966 10965 10964 10962 10960 10958 10956 10955 10954 10953 10952 10952 10952 10952 10952 10952 10953 10954 10954 10954 10955 10955 10956 10956 10957 10957 10957 10957 10957 10957 10957 10957 10957 10957 10956 10956 10955 10954 10954 10953 10952 10951 10950 10949 10947 10946 10945 10943 10942 10940 10939 10937 10934 10932 10930 10928 10926 10924 10922 10920 10918 10916 10914 10911 10908 10905 10902
10992 10991 10989 10988 10986 10985 10984 10983 10982 10980 10979 10978 10977 10975 10974 10973 10972 10971 10970 10968 10967 10965 10963 10961 10959 10958 10956 10955 10955 10954 10953 10953 10953 10953 10954 10955 10955 10956 10956 10957 10958 10958 10958 10958 10959 10959 10959 10959 10958 10958 10958 10958 10957 10956 10956 10955 10955 10954 10953 10952 10951 10950 10948 10947 10945 10944 10942 10941 10939 10937 10935 10933 10931 10929 10927 10924 10922 10920 10918 10916 10914 10911 10908 10905 10901
10994 10993 10991 10990 10988 10987 10986 10985 10984 10983 10982 10981 10979 10978 10976 10976 10975 10975 10973 10971 10969 10967 10965 10963 10962 10961 10959 10958 10957 10956 10955 10955 10955 10955 10955 10956 10956 10957 10958 10959 10959 10960 10960 10960 10960 10960 10960 10960 10960 10959 10959 10959 10958 10957 10957 10957 10956 10955 10954 10953 10952 10951 10949 10948 10946 10944 10943 10941 10939 10937 10935 10933 10932 10929 10927 10925 10923 10921 10919 10916 10914 10911 10908 10904 10901
10996 10995 10994 10993 10991 10989 10988 10988 10987 10986 10985 10983 10982 10981 10979 10979 10978 10977 10975 10973 10972 10970 10968 10967 10965 10964 10963 10961 10960 10959 10958 10957 10957 10957 10957 10957 10958 10959 10960 10961 10961 10961 10961 10961 10961 10961 10961 10961 10961 10961 10960 10960 10960 10959 10959 10958 10957 10956 10955 10954 10953 10951 10950 10948 10947 10945 10943 10941 10940 10938 10936 10934 10932 10930 10928 10925 10923 10921 10919 10916 10914 10911 10908 10904 10901
10999 10998 10997 10995 10993 10992 10991 10990 10989 10988 10987 10986 10985 10984 10983 10982 10980 10979 10978 10976 10975 10973 10972 10970 10969 10968 10966 10965 10963 10962 10961 10960 10960 10959 10959 10959 10960 10961 10962 10962 10962 10963 10963 10963 10963 10963 10963 10962 10962 10962 10962 10962 10961 10961 10960 10959 10958 10957 10956 10955 10954 10952 10951 10949 10947 10946 10944 10942 10940 10938 10936 10934 10932 10931 10928 10926 10924 10921 10919 10916 10914 10911 10908 10905 10901
11001 11000 11000 10998 10996 10995 10994 10993 10992 10991 10990 10989 10988 10986 10985 10984 10983 10982 10981 10980 10978 10977 10976 10974 10973 10971 10969 10968 10967 10965 10964 10963 10963 10962 10962 10962 10962 10963 10963 10964 10964 10964 10964 10964 10964 10965 10964 10964 10964 10964 10964 10964 10963 10963 10962 10961 10960 10959 10957 10956 10955 10953 10951 10950 10948 10947 10945 10943 10941 10939 10937 10935 10933 10931 10929 10927 10924 10922 10919 10917 10914 10911 10908 10905 10902
11004 11003 11002 11001 10999 10998 10996 10996 10995 10994 10993 10992 10990 10988 10987 10986 10985 10985 10984 10983 10982 10980 10979 10978 10976 10974 10972 10971 10969 10968 10967 10967 10966 10965 10965 10965 10965 10965 10966 10966 10966 10966 10966 10966 10967 10967 10966 10966 10966 10966 10966 10966 10965 10964 10963 10962 10961 10960 10958 10957 10956 10954 10952 10951 10949 10948 10946 10944 10942 10940 10937 10935 10934 10932 10930 10928 10925 10922 10920 10917 10914 10911 10909 10906 10902
11005 11005 11004 11002 11001 11000 10999 10999 10998 10997 10995 10994 10992 10991 10990 10990 10988 10988 10987 10986 10984 10983 10982 10980 10978 10977 10975 10974 10972 10971 10971 10970 10969 10969 10968 10968 10968 10968 10969 10969 10968 10969 10969 10969 10969 10969 10969 10968 10968 10968 10968 10967 10967 10966 10964 10963 10962 10961 10959 10958 10957 10955 10954 10952 10950 10948 10947 10945 10943 10941 10938 10936 10934 10932 10930 10928 10926 10923 10920 10918 10915 10912 10909 10906 10902
11008 11007 11006 11005 11004 11003 11003 11002 11000 10998 10997 10996 10995 10994 10994 10993 10992 10991 10990 10989 10987 10986 10985 10983 10981 10980 10978 10977 10976 10974 10974 10973 10972 10972 10971 10971 10971 10971 10972 10971 10971 10971 10971 10971 10972 10972 10971 10970 10969 10969 10969 10969 10968 10967 10966 10965 10963 10962 10961 10959 10958 10956 10955 10953 10951 10949 10948 10946 10944 10942 10940 10937 10935 10933 10931 10929 10926 10924 10921 10919 10916 10913 10910 10906 10902
11011 11010 11009 11008 11007 11006 11005 11004 11002 11001 11000 10999 10998 10997 10997 10996 10995 10994 10993 10992 10991 10989 10988 10986 10984 10983 10981 10980 10978 10977 10977 10976 10976 10975 10975 10974 10974 10975 10975 10974 10973 10974 10974 10974 10974 10974 10973 10972 10971 10971 10971 10971 10970 10969 10967 10966 10964 10963 10962 10960 10959 10957 10956 10954 10952 10950 10948 10947 10945 10943 10941 10938 10936 10934 10932 10929 10927 10924 10922 10920 10917 10914 10911 10907 10903
11013 11012 11011 11010 11009 11008 11007 11006 11005 11004 11003 11002 11001 11000 10999 10999 10998 10997 10996 10995 10994 10992 10991 10989 10987 10986 10984 10983 10982 10981 10980 10980 10979 10978 10978 10978 10977 10977 10977 10977 10976 10976 10976 10977 10976 10976 10975 10974 10973 10973 10973 10972 10971 10970 10968 10967 10965 10964 10963 10961 10960 10958 10957 10955 10953 10951 10949 10947 10946 10944 10941 10939 10937 10935 10933 10930 10928 10926 10923 10921 10918 10915 10911 10908 10904
11015 11014 11013 11012 11011 11010 11009 11009 11008 11007 11006 11005 11004 11003 11002 11001 11001 10999 10998 10998 10997 10995 10993 10991 10990 10989 10988 10986 10985 10984 10984 10983 10982 10981 10981 10980 10980 10980 10980 10979 10978 10978 10978 10979 10978 10977 10977 10976 10975 10974 10974 10973 10972 10971 10969 10968 10967 10965 10964 10962 10961 10959 10957 10956 10954 10952 10950 10948 10946 10944 10942 10940 10938 10936 10934 10932 10929 10927 10925 10922 10919 10916 10912 10909 10906
11017 11016 11015 11014 11013 11012 11011 11011 11010 11009 11008 11007 11006 11005 11004 11004 11003 11002 11001 11000 10999 10997 10996 10994 10993 10992 10991 10989 10989 10988 10987 10986 10985 10985 10983 10982 10982 10982 10982 10982 10981 10980 10980 10980 10980 10979 10978 10978 10977 10976 10975 10974 10973 10972 10971 10969 10968 10967 10965 10963 10962 10960 10958 10956 10955 10953 10951 10949 10947 10945 10943 10941 10939 10937 10935 10933 10931 10928 10926 10923 10920 10917 10913 10910 10907
11018 11017 11017 11016 11015 11014 11014 11013 11012 11011 11010 11010 11009 11008 11007 11006 11005 11004 11003 11002 11000 10999 10998 10997 10996 10995 10993 10992 10992 10991 10990 10988 10988 10987 10986 10985 10984 10984 10984 10984 10983 10983 10982 10982 10981 10981 10980 10979 10978 10978 10977 10975 10974 10973 10972 10970 10969 10968 10966 10964 10962 10961 10959 10957 10955 10954 10952 10950 10948 10946 10944 10942 10940 10938 10936 10934 10932 10930 10927 10924 10921 10918 10915 10912 10909
11019 11019 11018 11018 11017 11017 11015 11014 11014 11013 11012 11011 11010 11010 11009 11007 11006 11006 11004 11003 11002 11001 11000 10999 10998 10997 10996 10995 10994 10993 10992 10991 10990 10990 10989 10988 10987 10986 10986 10986 10986 10985 10984 10983 10983 10982 10981 10980 10980 10979 10978 10977 10975 10974 10973 10971 10970 10968 10967 10965 10963 10962 10960 10958 10956 10955 10953 10951 10949 10947 10945 10943 10941 10939 10937 10935 10933 10931 10929 10926 10923 10919 10917 10914 10911
11021 11021 11020 11020 11019 11018 11017 11016 11015 11015 11014 11013 11012 11011 11010 11009 11008 11007 11006 11005 11003 11003 11002 11002 11001 10999 10998 10997 10996 10995 10994 10993 10992 10992 10991 10990 10989 10989 10988 10987 10987 10987 10986 10985 10985 10984 10983 10982 10981 10981 10979 10978 10977 10975 10974 10972 10971 10969 10968 10966 10964 10963 10961 10959 10957 10956 10954 10952 10950 10948 10946 10945 10943 10940 10938 10936 10934 10932 10930 10927 10924 10921 10918 10915 10912
11022 11022 11022 11021 11021 11020 11019 11018 11017 11016 11016 11015 11014 11013 11012 11010 11009 11008 11007 11006 11005 11005 11004 11003 11003 11002 11001 11000 10999 10998 10997 10995 10995 10994 10993 10992 10991 10991 10990 10989 10989 10988 10988 10987 10986 10985 10984 10984 10983 10982 10980 10979 10978 10976 10975 10974 10972 10970 10969 10967 10965 10963 10962 10960 10959 10957 10955 10953 10951 10949 10948 10946 10944 10942 10940 10938 10936 10934 10931 10929 10926 10923 10920 10917 10914
11023 11023 11023 11023 11022 11021 11021 11020 11019 11018 11017 11016 11015 11014 11013 11012 11011 11009 11009 11008 11007 11007 11006 11005 11004 11004 11003 11002 11001 11000 10999 10998 10997 10996 10995 10994 10993 10992 10992 10991 10991 10990 10990 10988 10988 10987 10986 10985 10984 10982 10981 10980 10979 10977 10976 10975 10973 10972 10970 10968 10966 10965 10963 10961 10960 10958 10956 10954 10952 10950 10949 10947 10945 10943 10941 10939 10937 10935 10933 10930 10927 10925 10922 10919 10916
11024 11024 11024 11024 11023 11023 11022 11021 11020 11019 11018 11017 11016 11015 11014 11013 11012 11011 11010 11009 11009 11008 11008 11007 11006 11005 11004 11004 11003 11002 11001 11000 10999 10998 10997 10996 10995 10994 10994 10993 10992 10992 10991 10990 10989 10989 10988 10986 10985 10983 10982 10981 10980 10979 10978 10976 10974 10973 10971 10969 10967 10966 10964 10963 10961 10959 10957 10956 10954 10952 10950 10949 10947 10945 10943 10941 10939 10937 10935 10932 10929 10926 10924 10921 10919
11026 11025 11025 11025 11024 11024 11023 11022 11021 11020 11019 11018 11018 11017 11015 11014 11014 11013 11012 11011 11010 11010 11009 11008 11008 11007 11006 11005 11004 11003 11003 11002 11001 11000 10999 10998 10997 10996 10995 10995 10994 10993 10992 10991 10991 10990 10989 10987 10986 10985 10984 10983 10981 10980 10979 10977 10976 10974 10972 10970 10969 10967 10965 10964 10962 10960 10959 10957 10955 10954 10952 10950 10949 10946 10944 10942 10941 10939 10936 10934 10931 10928 10926 10923 10921
11027 11026 11026 11026 11025 11025 11024 11023 11022 11021 11021 11020 11019 11018 11016 11016 11015 11014 11013 11012 11011 11011 11010 11010 11009 11008 11007 11006 11006 11005 11004 11003 11003 11002 11001 11000 10999 10998 10997 10996 10995 10995 10994 10993 10992 10991 10990 10988 10987 10986 10985 10984 10983 10982 10980 10978 10977 10975 10973 10971 10970 10968 10967 10965 10963 10961 10960 10959 10957 10955 10954 10952 10950 10948 10946 10944 10942 10940 10938 10935 10933 10930 10928 10925 10923
11028 11028 11027 11027 11026 11026 11025 11025 11024 11023 11022 11021 11020 11019 11017 11016 11016 11015 11014 11013 11013 11012 11011 11011 11010 11009 11009 11008 11007 11006 11006 11005 11004 11004 11003 11002 11001 11000 10999 10998 10997 10996 10995 10994 10992 10991 10991 10989 10988 10987 10986 10985 10984 10983 10981 10980 10978 10976 10975 10973 10971 10970 10968 10966 10964 10963 10961 10960 10959 10957 10956 10954 10952 10950 10948 10946 10944 10942 10940 10937 10935 10932 10930 10927 10925
11029 11029 11028 11028 11027 11027 11026 11026 11025 11024 11023 11022 11021 11020 11019 11017 11017 11016 11015 11015 11014 11013 11012 11012 11011 11011 11010 11009 11008 11008 11007 11006 11006 11005 11004 11003 11002 11001 11000 10999 10998 10997 10996 10995 10994 10993 10992 10991 10989 10988 10987 10986 10985 10984 10982 10981 10979 10978 10976 10974 10972 10971 10969 10968 10966 10964 10963 10962 10960 10959 10957 10956 10954 10952 10950 10948 10946 10944 10942 10939 10937 10934 10932 10930 10927
11030 11030 11029 11029 11028 11028 11027 11026 11026 11025 11024 11023 11022 11021 11020 11019 11018 11017 11016 11015 11015 11014 11013 11013 11012 11012 11011 11010 11009 11009 11008 11008 11007 11006 11005 11004 11004 11003 11002 11001 11000 10998 10997 10996 10995 10994 10993 10992 10991 10989 10988 10987 10986 10985 10983 10982 10980 10979 10977 10975 10974 10972 10971 10969 10968 10966 10965 10964 10962 10961 10959 10958 10956 10954 10952 10950 10948 10946 10944 10942 10939 10937 10935 10932 10930
11030 11030 11030 11030 11029 11029 11028 11028 11027 11026 11025 11024 11024 11023 11021 11020 11019 11018 11017 11017 11016 11015 11014 11014 11013 11013 11012 11011 11010 11010 11009 11009 11008 11007 11006 11006 11005 11004 11003 11002 11001 11000 10998 10997 10996 10995 10994 10992 10991 10990 10989 10988 10987 10986 10984 10983 10981 10980 10978 10977 10975 10974 10973 10971 10969 10968 10967 10966 10964 10963 10962 10960 10959 10957 10954 10952 10950 10948 10946 10944 10942 10940 10937 10935 10933
11030 11030 11030 11030 11030 11029 11029 11029 11028 11027 11026 11026 11025 11024 11023 11022 11021 11019 11018 11018 11017 11017 11016 11015 11014 11014 11013 11012 11012 11011 11010 11010 11009 11008 11007 11007 11006 11005 11004 11003 11002 11001 10999 10998 10997 10996 10995 10994 10992 10991 10990 10989 10988 10987 10985 10984 10982 10981 10979 10978 10977 10976 10974 10973 10971 10970 10969 10967 10966 10965 10963 10962 10961 10959 10957 10955 10952 10950 10948 10946 10944 10943 10941 10938 10936
11031 11030 11030 11030 11030 11030 11029 11029 11029 11028 11027 11026 11026 11025 11024 11023 11022 11021 11020 11019 11018 11018 11017 11016 11015 11015 11014 11014 11013 11012 11011 11011 11010 11009 11009 11008 11007 11006 11005 11004 11003 11001 11000 10999 10998 10997 10996 10995 10994 10992 10991 10990 10989 10987 10986 10984 10983 10982 10981 10979 10978 10977 10976 10974 10973 10972 10971 10969 10968 10967 10965 10964 10962 10961 10959 10957 10955 10953 10951 10949 10947 10945 10943 10941 10939
11031 11031 11030 11030 11030 11030 11030 11029 11029 11028 11028 11027 11026 11026 11025 11024 11023 11022 11021 11020 11019 11019 11018 11017 11016 11016 11015 11015 11014 11013 11012 11012 11011 11010 11009 11009 11008 11007 11006 11005 11003 11002 11001 11000 10999 10998 10997 10996 10994 10993 10992 10991 10990 10988 10987 10985 10984 10983 10982 10981 10979 10978 10977 10976 10975 10974 10973 10971 10970 10968 10967 10965 10964 10963 10961 10959 10957 10955 10953 10951 10950 10948 10946 10944 10942
11032 11031 11031 11030 11030 11030 11030 11030 11029 11029 11028 11028 11027 11027 11026 11025 11025 11024 11023 11021 11021 11020 11019 11018 11017 11017 11016 11016 11015 11014 11013 11013 11012 11011 11010 11009 11008 11007 11006 11005 11004 11003 11002 11001 11000 10999 10998 10997 10995 10994 10993 10992 10990 10989 10988 10986 10985 10984 10983 10982 10981 10980 10979 10978 10977 10976 10974 10973 10972 10970 10969 10967 10966 10964 10963 10962 10960 10957 10955 10954 10952 10951 10949 10947 10945
11032 11031 11031 11031 11030 11030 11030 11030 11030 11030 11029 11029 11028 11027 11027 11026 11026 11025 11024 11023 11022 11021 11020 11019 11018 11018 11017 11016 11016 11015 11014 11014 11013 11012 11011 11010 11009 11008 11007 11006 11005 11004 11003 11002 11001 11000 10999 10998 10996 10995 10994 10993 10991 10990 10989 10988 10987 10986 10985 10984 10983 10982 10981 10980 10979 10977 10976 10975 10974 10973 10971 10969 10968 10966 10965 10964 10962 10960 10958 10957 10955 10953 10952 10950 10948
11032 11031 11031 11031 11030 11031 11030 11030 11030 11030 11030 11029 11029 11028 11028 11027 11026 11026 11025 11024 11023 11022 11022 11021 11020 11019 11018 11017 11017 11016 11015 11014 11014 11013 11012 11011 11010 11009 11008 11007 11006 11005 11004 11003 11002 11001 11000 10999 10998 10996 10995 10994 10992 10991 10990 10989 10988 10987 10986 10985 10984 10983 10982 10981 10981 10979 10978 10977 10976 10974 10973 10971 10970 10969 10968 10966 10965 10963 10962 10960 10958 10956 10955 10953 10951
11031 11031 11031 11030 11030 11031 11031 11031 11031 11031 11030 11030 11030 11029 11028 11028 11027 11026 11026 11025 11024 11024 11023 11022 11021 11020 11019 11018 11018 11017 11016 11015 11014 11014 11013 11012 11011 11010 11009 11008 11007 11006 11005 11004 11003 11002 11001 11000 10999 10998 10996 10995 10994 10992 10991 10991 10990 10989 10988 10987 10986 10985 10984 10984 10983 10981 10980 10979 10978 10976 10975 10974 10973 10972 10970 10969 10968 10967 10965 10964 10962 10960 10958 10957 10955
11030 11030 11030 11030 11030 11031 11031 11031 11031 11031 11031 11030 11030 11030 11029 11029 11028 11027 11026 11026 11025 11025 11024 11024 11023 11022 11021 11020 11019 11018 11017 11016 11015 11015 11014 11013 11012 11012 11011 11010 11009 11008 11006 11005 11004 11003 11002 11001 11000 10999 10998 10996 10995 10994 10993 10992 10991 10990 10990 10989 10988 10987 10986 10985 10984 10983 10982 10981 10980 10979 10978 10977 10976 10975 10974 10973 10972 10971 10970 10968 10967 10965 10963 10961 10959
11028 11029 11029 11029 11030 11030 11030 11031 11031 11031 11031 11031 11030 11030 11030 11029 11028 11028 11027 11026 11026 11026 11025 11025 11024 11023 11022 11021 11021 11020 11019 11018 11017 11016 11015 11014 11014 11013 11012 11011 11010 11009 11008 11007 11006 11004 11003 11002 11001 11000 10999 10998 10997 10996 10995 10994 10993 10992 10991 10991 10990 10989 10988 10987 10986 10985 10984 10984 10983 10982 10981 10981 10980 10979 10978 10977 10976 10975 10974 10973 10971 10969 10967 10966 10964
11026 11027 11027 11027 11028 11029 11029 11030 11030 11030 11031 11031 11030 11030 11030 11029 11029 11028 11027 11027 11026 11026 11026 11025 11025 11024 11023 11022 11022 11021 11020 11019 11018 11017 11017 11016 11015 11015 11014 11013 11012 11011 11009 11008 11007 11006 11004 11003 11002 11001 11000 10999 10998 10997 10996 10995 10995 10994 10993 10993 10992 10991 10990 10989 10989 10988 10988 10987 10987 10986 10985 10985 10984 10983 10982 10982 10981 10979 10978 10977 10976 10974 10973 10971 10970
11026 11026 11026 11026 11026 11026 11027 11028 11029 11029 11030 11030 11030 11030 11030 11029 11029 11028 11027 11027 11026 11026 11026 11026 11025 11025 11024 11023 11023 11022 11021 11020 11019 11019 11018 11017 11017 11016 11015 11014 11013 11012 11011 11010 11008 11007 11006 11004 11003 11002 11001 11000 11000 10999 10998 10997 10997 10996 10995 10994 10993 10992 10992 10991 10991 10991 10991 10991 10991 10990 10990 10989 10989 10988 10987 10986 10985 10984 10983 10981 10980 10979 10978 10976 10975
11025 11025 11026 11025 11025 11024 11025 11026 11027 11028 11028 11029 11029 11029 11029 11029 11028 11028 11027 11027 11026 11026 11026 11026 11025 11025 11024 11024 11023 11023 11022 11021 11020 11020 11019 11019 11018 11017 11016 11016 11015 11013 11012 11011 11010 11008 11007 11006 11005 11004 11003 11002 11001 11000 11000 10999 10999 10998 10997 10996 10995 10995 10994 10994 10994 10994 10994 10994 10994 10994 10993 10993 10993 10992 10991 10990 10989 10988 10987 10986 10984 10983 10982 10981 10980
11023 11024 11024 11025 11025 11024 11024 11025 11025 11026 11027 11027 11028 11028 11028 11028 11028 11028 11027 11027 11027 11026 11026 11026 11026 11025 11025 11024 11024 11023 11023 11022 11021 11021 11020 11020 11019 11018 11017 11017 11016 11015 11013 11012 11011 11009 11008 11007 11006 11005 11004 11003 11003 11002 11002 11001 11001 11000 10999 10998 10998 10997 10997 10997 10996 10996 10996 10996 10996 10996 10995 10995 10995 10994 10994 10993 10992 10990 10989 10988 10987 10986 10985 10984 10983
11022 11023 11023 11024 11024 11024 11024 11024 11024 11025 11026 11026 11027 11027 11027 11027 11027 11027 11027 11027 11027 11026 11026 11026 11026 11026 11026 11025 11025 11024 11023 11023 11022 11021 11021 11021 11020 11019 11018 11018 11017 11016 11015 11013 11012 11011 11010 11008 11007 11007 11006 11005 11004 11004 11003 11003 11002 11002 11001 11001 11000 11000 11000 10999 10999 10999 10998 10998 10998 10997 10997 10997 10996 10996 10995 10994 10994 10992 10991 10990 10989 10988 10987 10986 10985
11021 11021 11022 11022 11023 11023 11023 11023 11024 11024 11025 11025 11026 11026 11026 11027 11027 11027 11026 11026 11026 11026 11026 11026 11026 11026 11026 11025 11025 11024 11024 11023 11022 11022 11021 11021 11021 11020 11019 11019 11017 11017 11015 11014 11013 11012 11011 11010 11009 11008 11008 11007 11006 11006 11005 11005 11004 11004 11003 11003 11003 11002 11002 11001 11001 11001 11000 11000 11000 10999 10999 10998 10998 10998 10997 10996 10995 10994 10993 10992 10991 10991 10990 10988 10988
11019 11019 11020 11020 11021 11022 11022 11023 11023 11023 11024 11024 11025 11025 11025 11026 11026 11026 11026 11025 11025 11025 11025 11025 11025 11025 11025 11025 11025 11025 11024 11023 11023 11022 11021 11021 11021 11020 11020 11019 11018 11017 11016 11015 11014 11013 11012 11012 11011 11010 11010 11009 11009 11008 11007 11007 11007 11006 11006 11006 11005 11005 11004 11004 11003 11003 11003 11002 11002 11001 11001 11000 11000 10999 10999 10998 10997 10996 10995 10995 10994 10993 10992 10991 10990
11016 11017 11017 11019 11020 11020 11021 11021 11022 11022 11023 11023 11024 11024 11024 11025 11025 11025 11025 11024 11024 11023 11023 11023 11024 11024 11024 11024 11025 11024 11024 11023 11022 11022 11021 11021 11020 11020 11019 11019 11018 11017 11016 11016 11015 11014 11014 11013 11013 11012 11011 11011 11010 11010 11010 11009 11009 11009 11009 11008 11008 11007 11007 11006 11006 11005 11005 11004 11004 11003 11002 11002 11001 11001 11000 10999 10999 10998 10997 10996 10996 10995 10994 10993 10992
11013 11014 11015 11016 11017 11018 11019 11019 11020 11021 11022 11022 11023 11023 11023 11024 11024 11024 11024 11023 11023 11022 11022 11022 11022 11022 11023 11023 11023 11023 11023 11022 11022 11021 11021 11020 11020 11019 11019 11018 11018 11017 11016 11016 11015 11015 11015 11014 11014 11013 11013 11012 11012 11012 11011 11011 11011 11011 11010 11010 11010 11009 11009 11008 11008 11007 11007 11006 11005 11005 11004 11003 11003 11002 11001 11001 11000 10999 10998 10998 10997 10996 10995 10994 10993
11010 11011 11012 11013 11014 11015 11016 11017 11018 11019 11020 11021 11022 11022 11022 11022 11022 11021 11021 11021 11021 11020 11020 11020 11020 11020 11020 11021 11021 11022 11022 11021 11021 11020 11020 11020 11019 11019 11018 11018 11017 11016 11016 11016 11016 11016 11015 11015 11015 11014 11014 11014 11013 11013 11013 11013 11012 11012 11011 11011 11011 11010 11010 11010 11009 11009 11008 11008 11007 11006 11005 11005 11004 11003 11002 11002 11001 11000 11000 10999 10998 10997 10996 10995 10994
11006 11008 11009 11010 11011 11012 11013 11014 11015 11017 11018 11019 11019 11020 11020 11020 11019 11019 11018 11018 11018 11018 11019 11019 11018 11018 11019 11019 11019 11020 11020 11020 11019 11019 11019 11019 11018 11018 11018 11017 11017 11016 11016 11015 11016 11016 11015 11015 11015 11015 11015 11015 11014 11014 11014 11014 11013 11013 11013 11012 11012 11011 11011 11011 11010 11010 11009 11009 11008 11007 11007 11006 11005 11004 11003 11003 11002 11001 11001 11000 10999 10998 10997 10996 10995
11002 11004 11006 11007 11008 11010 11010 11011 11013 11014 11015 11016 11016 11016 11017 11017 11016 11016 11016 11016 11017 11017 11018 11018 11018 11018 11018 11018 11018 11019 11019 11019 11018 11018 11017 11017 11017 11017 11017 11017 11016 11016 11015 11015 11015 11015 11015 11015 11016 11016 11016 11015 11015 11015 11015 11015 11014 11014 11013 11013 11012 11012 11011 11011 11011 11010 11010 11009 11009 11008 11007 11007 11006 11005 11004 11003 11003 11002 11001 11000 11000 10999 10998 10997 10996
10998 11000 11002 11004 11005 11006 11007 11008 11009 11011 11012 11012 11011 11012 11012 11014 11014 11015 11015 11015 11015 11016 11016 11017 11017 11017 11017 11017 11018 11018 11018 11018 11017 11017 11016 11016 11015 11015 11015 11015 11015 11015 11015 11014 11014 11014 11014 11015 11015 11016 11016 11016 11016 11016 11015 11015 11015 11014 11014 11013 11013 11012 11012 11011 11011 11011 11010 11010 11009 11009 11008 11007 11007 11006 11005 11004 11003 11002 11001 11001 11000 10999 10998 10997 10996
10994 10996 10999 11002 11002 11003 11003 11004 11005 11007 11008 11007 11007 11008 11010 11012 11013 11013 11013 11013 11013 11013 11013 11014 11014 11014 11014 11014 11014 11015 11015 11016 11016 11016 11015 11014 11014 11014 11014 11013 11013 11014 11013 11013 11012 11013 11013 11013 11014 11014 11015 11015 11015 11015 11015 11015 11015 11014 11014 11014 11013 11013 11012 11012 11011 11011 11010 11010 11009 11008 11008 11007 11007 11006 11005 11004 11003 11002 11002 11001 11000 10999 10998 10997 10996
10990 10993 10997 10999 11000 11000 11000 11000 11001 11003 11003 11003 11004 11006 11008 11009 11010 11010 11010 11010 11010 11010 11011 11011 11011 11011 11010 11010 11010 11011 11012 11012 11013 11013 11012 11012 11011 11011 11012 11011 11011 11012 11012 11011 11010 11011 11011 11012 11012 11012 11013 11013 11014 11014 11014 11014 11014 11014 11014 11013 11013 11013 11012 11012 11011 11011 11010 11010 11009 11008 11007 11007 11006 11005 11005 11004 11003 11002 11001 11000 11000 10999 10998 10996 10995
10985 10989 10993 10994 10996 10996 10995 10994 10996 10997 10999 11001 11002 11003 11004 11005 11006 11007 11007 11007 11007 11007 11008 11009 11009 11008 11008 11008 11007 11007 11008 11009 11010 11010 11009 11009 11008 11009 11009 11009 11009 11010 11010 11009 11008 11009 11009 11010 11010 11011 11011 11011 11012 11012 11012 11012 11012 11012 11012 11012 11012 11012 11011 11011 11010 11010 11009 11008 11007 11007 11006 11005 11005 11004 11003 11003 11002 11001 11000 10999 10998 10997 10996 10996 10995